CW5988 Weather Reports


Display with metric or nautical units.
time (UTC)temp
F
wind
direction
speed
MPH
gust
MPH
rain 1hr
in
rain 24hr
in
rain mn
in
humidity
%
barometer
mb
20260903211920 69 221 6.0 15.0 0.00 0.00 0.00 74 1013.9
20260903211426 69 256 6.0 15.0 0.00 0.00 0.00 74 1013.9
20260903210932 69 192 7.0 17.0 0.00 0.00 0.00 73 1014.0
20260903210420 70 249 7.0 17.0 0.00 0.00 0.00 73 1014.0
20260903205923 70 194 6.0 13.0 0.00 0.00 0.00 73 1014.0
20260903205425 70 234 7.0 13.0 0.00 0.00 0.00 73 1014.1
20260903204931 70 261 7.0 13.0 0.00 0.00 0.00 72 1014.0
20260903204417 70 227 5.0 12.0 0.00 0.00 0.00 73 1014.1
20260903203944 70 217 5.0 18.0 0.00 0.00 0.00 73 1014.0
20260903203432 69 249 5.0 16.0 0.00 0.00 0.00 74 1014.1
20260903202917 69 235 6.0 16.0 0.00 0.00 0.00 74 1014.1
20260903202426 69 250 7.0 15.0 0.00 0.00 0.00 75 1014.1
20260903201931 69 259 7.0 16.0 0.00 0.00 0.00 74 1014.0
20260903201445 69 278 8.0 15.0 0.00 0.00 0.00 74 1014.1
20260903200932 69 233 7.0 18.0 0.00 0.00 0.00 74 1014.1
20260903200417 69 211 8.0 13.0 0.00 0.00 0.00 74 1014.1
20260903195919 69 251 4.0 17.0 0.00 0.00 0.00 75 1014.2
20260903195424 69 242 10.0 17.0 0.00 0.00 0.00 74 1014.2
20260903194930 69 221 3.0 14.0 0.00 0.00 0.00 75 1014.2
20260903194417 68 240 5.0 16.0 0.00 0.00 0.00 76 1014.2
20260903193923 68 282 7.0 15.0 0.00 0.00 0.00 75 1014.5
20260903193431 68 226 9.0 15.0 0.00 0.00 0.00 75 1014.4
20260903192916 68 94 7.0 14.0 0.00 0.00 0.00 75 1014.6
20260903192425 68 242 8.0 13.0 0.00 0.00 0.00 74 1014.6
20260903191934 69 216 6.0 13.0 0.00 0.00 0.00 73 1014.7
20260903191421 69 242 6.0 12.0 0.00 0.00 0.00 73 1014.7
20260903190927 69 261 8.0 16.0 0.00 0.00 0.00 73 1014.7
20260903190457 69 203 5.0 16.0 0.00 0.00 0.00 73 1014.7
20260903185934 69 230 5.0 12.0 0.00 0.00 0.00 73 1014.7
20260903185420 68 270 5.0 13.0 0.00 0.00 0.00 73 1014.8
20260903184927 68 235 4.0 17.0 0.00 0.00 0.00 74 1014.9
20260903184431 68 203 6.0 12.0 0.00 0.00 0.00 74 1014.9
20260903183936 68 219 5.0 12.0 0.00 0.00 0.00 74 1014.9
20260903183446 68 194 6.0 11.0 0.00 0.00 0.00 74 1014.8
20260903182932 68 215 4.0 10.0 0.00 0.00 0.00 74 1014.9
20260903182439 68 246 6.0 13.0 0.00 0.00 0.00 74 1014.9
20260903181947 67 186 7.0 15.0 0.00 0.00 0.00 74 1014.9
20260903181434 67 177 8.0 16.0 0.00 0.00 0.00 73 1014.9
20260903180919 67 236 9.0 16.0 0.00 0.00 0.00 73 1014.8
20260903180424 67 239 7.0 16.0 0.00 0.00 0.00 73 1014.7
20260903175929 67 216 9.0 16.0 0.00 0.00 0.00 73 1014.7
20260903175435 68 232 8.0 17.0 0.00 0.00 0.00 73 1014.7
20260903174923 68 231 9.0 17.0 0.00 0.00 0.00 73 1014.7
20260903174428 68 213 5.0 13.0 0.00 0.00 0.00 73 1014.7
20260903173932 68 206 6.0 11.0 0.00 0.00 0.00 74 1014.6
20260903173439 67 222 5.0 12.0 0.00 0.00 0.00 74 1014.6
20260903172922 67 209 4.0 12.0 0.00 0.00 0.00 74 1014.6
20260903172425 67 186 3.0 14.0 0.00 0.00 0.00 74 1014.7
20260903171935 67 196 6.0 12.0 0.00 0.00 0.00 74 1014.7
20260903171419 67 207 5.0 14.0 0.00 0.00 0.00 75 1014.7
20260903170924 66 222 5.0 14.0 0.00 0.00 0.00 75 1014.7
20260903170431 66 242 6.0 14.0 0.00 0.00 0.00 76 1014.8
20260903165935 66 219 7.0 13.0 0.00 0.00 0.00 76 1015.0
20260903165419 66 222 3.0 13.0 0.00 0.00 0.00 76 1015.0
20260903164943 65 220 3.0 14.0 0.00 0.00 0.00 76 1015.0
20260903164428 65 218 7.0 14.0 0.00 0.00 0.00 76 1014.9
20260903163936 65 212 7.0 14.0 0.00 0.00 0.00 76 1015.0
20260903163443 65 215 6.0 12.0 0.00 0.00 0.00 76 1015.1
20260903162926 65 222 6.0 13.0 0.00 0.00 0.00 76 1015.2
20260903162432 65 223 4.0 9.0 0.00 0.00 0.00 77 1015.1
20260903161921 65 201 3.0 9.0 0.00 0.00 0.00 77 1015.2
20260903161422 65 185 3.0 9.0 0.00 0.00 0.00 77 1015.2
20260903160920 65 219 5.0 10.0 0.00 0.00 0.00 77 1015.3
20260903160426 65 251 3.0 6.0 0.00 0.00 0.00 78 1015.2
20260903155930 65 177 2.0 6.0 0.00 0.00 0.00 78 1015.2
20260903155417 64 222 3.0 6.0 0.00 0.00 0.00 78 1015.3
20260903154923 64 209 2.0 6.0 0.00 0.00 0.00 79 1015.3
20260903154446 64 225 3.0 6.0 0.00 0.00 0.00 79 1015.2
20260903153931 64 268 2.0 6.0 0.00 0.00 0.00 80 1015.3
20260903153417 64 177 2.0 6.0 0.00 0.00 0.00 80 1015.2
20260903152922 64 171 2.0 6.0 0.00 0.00 0.00 80 1015.2
20260903152430 64 102 2.0 6.0 0.00 0.00 0.00 81 1015.4
20260903151935 63 154 1.0 5.0 0.00 0.00 0.00 81 1015.2
20260903151421 63 256 2.0 4.0 0.00 0.00 0.00 82 1015.2
20260903150926 63 219 1.0 5.0 0.00 0.00 0.00 82 1015.3
20260903150456 63 162 3.0 6.0 0.00 0.00 0.00 82 1015.2
20260903145939 63 247 2.0 6.0 0.00 0.00 0.00 83 1015.1
20260903145427 63 116 1.0 6.0 0.00 0.00 0.00 84 1015.2
20260903144934 63 62 2.0 6.0 0.00 0.00 0.00 84 1015.1
20260903144419 63 45 2.0 4.0 0.00 0.00 0.00 84 1015.1
20260903143925 62 232 2.0 4.0 0.00 0.00 0.00 85 1015.1
20260903143428 62 142 2.0 5.0 0.00 0.00 0.00 85 1015.1
20260903142930 62 222 1.0 5.0 0.00 0.00 0.00 85 1015.1
20260903142418 62 134 2.0 5.0 0.00 0.00 0.00 85 1015.0
20260903141925 62 160 1.0 5.0 0.00 0.00 0.00 85 1014.9
20260903141434 62 242 2.0 4.0 0.00 0.00 0.00 86 1014.8
20260903140919 62 55 2.0 5.0 0.00 0.00 0.00 85 1014.9
20260903140424 61 222 1.0 5.0 0.00 0.00 0.00 85 1014.8
20260903135927 61 137 1.0 3.0 0.00 0.00 0.00 85 1014.9
20260903135431 61 12 1.0 7.0 0.00 0.00 0.00 85 1015.0
20260903134918 61 216 3.0 7.0 0.00 0.00 0.00 85 1015.0
20260903134424 61 246 3.0 8.0 0.00 0.00 0.00 85 1014.9
20260903133932 61 295 4.0 8.0 0.00 0.00 0.00 86 1014.8
20260903133417 61 232 4.0 7.0 0.00 0.00 0.00 86 1014.9
20260903132921 61 177 2.0 6.0 0.00 0.00 0.00 86 1014.8
20260903132426 61 200 3.0 9.0 0.00 0.00 0.00 86 1014.8
20260903131931 61 232 5.0 9.0 0.00 0.00 0.00 86 1014.7
20260903131439 61 205 4.0 9.0 0.00 0.00 0.00 86 1014.8
20260903130925 61 211 3.0 8.0 0.00 0.00 0.00 86 1014.8
20260903130433 61 249 3.0 6.0 0.00 0.00 0.00 86 1014.8
20260903125917 61 207 1.0 3.0 0.00 0.00 0.00 86 1014.9
20260903125424 61 67 1.0 3.0 0.00 0.00 0.00 86 1014.8
20260903124930 61 55 1.0 3.0 0.00 0.00 0.00 86 1014.7
20260903124435 61 209 1.0 3.0 0.00 0.00 0.00 85 1014.8
20260903123952 61 209 2.0 4.0 0.00 0.00 0.00 85 1014.8
20260903123417 61 189 2.0 6.0 0.00 0.00 0.00 85 1014.9
20260903122924 61 214 3.0 6.0 0.00 0.00 0.00 85 1014.8
20260903122431 61 215 1.0 4.0 0.00 0.00 0.00 85 1014.8
20260903121919 62 88 1.0 7.0 0.00 0.00 0.00 85 1014.9
20260903121446 62 212 2.0 7.0 0.00 0.00 0.00 85 1015.0
20260903120930 62 222 3.0 6.0 0.00 0.00 0.00 85 1015.1
20260903120435 62 205 3.0 6.0 0.00 0.00 0.00 85 1015.2
20260903115939 62 226 2.0 9.0 0.00 0.00 0.00 85 1015.2
20260903115455 62 223 4.0 9.0 0.00 0.00 0.00 85 1015.2
20260903114940 62 206 3.0 6.0 0.00 0.00 0.00 85 1015.2
20260903114425 62 196 3.0 6.0 0.00 0.00 0.00 85 1015.3
20260903113927 62 202 3.0 6.0 0.00 0.00 0.00 85 1015.3
20260903113432 62 222 4.0 6.0 0.00 0.00 0.00 85 1015.4
20260903112919 62 210 2.0 7.0 0.00 0.00 0.00 85 1015.4
20260903112427 62 205 3.0 6.0 0.00 0.00 0.00 85 1015.4
20260903111933 62 214 2.0 6.0 0.00 0.00 0.00 85 1015.5
20260903111421 62 151 3.0 7.0 0.00 0.00 0.00 85 1015.6
20260903110926 62 268 4.0 7.0 0.00 0.00 0.00 85 1015.6
20260903110432 62 200 3.0 9.0 0.00 0.00 0.00 85 1015.6
20260903105934 62 219 6.0 10.0 0.00 0.00 0.00 85 1015.7
20260903105420 62 226 5.0 9.0 0.00 0.00 0.00 85 1015.7
20260903104930 62 232 5.0 8.0 0.00 0.00 0.00 85 1015.8
20260903104417 62 215 6.0 9.0 0.00 0.00 0.00 85 1015.7
20260903103924 62 164 5.0 9.0 0.00 0.00 0.00 85 1015.7
20260903103429 62 177 5.0 9.0 0.00 0.00 0.00 85 1015.6
20260903102934 62 214 2.0 7.0 0.00 0.00 0.00 85 1015.7
20260903102420 62 216 2.0 7.0 0.00 0.00 0.00 85 1015.7
20260903101924 62 219 2.0 7.0 0.00 0.00 0.00 85 1015.8
20260903101431 62 202 5.0 7.0 0.00 0.00 0.00 85 1015.9
20260903100919 62 206 3.0 7.0 0.00 0.00 0.00 85 1015.8
20260903100453 62 189 4.0 7.0 0.00 0.00 0.00 85 1015.9
20260903095919 62 339 2.0 6.0 0.00 0.00 0.00 85 1015.8
20260903095425 62 212 4.0 7.0 0.00 0.00 0.00 85 1015.9
20260903094933 62 200 4.0 7.0 0.00 0.00 0.00 85 1016.0
20260903094436 62 196 4.0 7.0 0.00 0.00 0.00 85 1016.0
20260903093952 62 239 3.0 6.0 0.00 0.00 0.00 85 1016.0
20260903093417 62 177 3.0 5.0 0.00 0.00 0.00 85 1016.1
20260903092921 62 268 2.0 3.0 0.00 0.00 0.00 85 1016.1
20260903092424 62 205 2.0 3.0 0.00 0.00 0.00 85 1016.1
20260903091930 62 268 1.0 4.0 0.00 0.00 0.00 85 1016.2
20260903091436 62 192 1.0 6.0 0.00 0.00 0.00 85 1016.2
20260903090920 62 235 4.0 6.0 0.00 0.00 0.00 85 1016.3
20260903090457 62 268 2.0 6.0 0.00 0.00 0.00 85 1016.3
20260903085919 62 218 4.0 6.0 0.00 0.00 0.00 85 1016.3
20260903085428 62 217 3.0 7.0 0.00 0.00 0.00 85 1016.3
20260903084935 62 198 4.0 7.0 0.00 0.00 0.00 85 1016.3
20260903084421 62 222 2.0 7.0 0.00 0.00 0.00 85 1016.3
20260903083926 62 251 3.0 9.0 0.00 0.00 0.00 85 1016.3
20260903083457 62 203 3.0 9.0 0.00 0.00 0.00 85 1016.2
20260903082923 62 247 5.0 8.0 0.00 0.00 0.00 85 1016.3
20260903082431 62 231 3.0 5.0 0.00 0.00 0.00 85 1016.3
20260903081917 62 203 2.0 6.0 0.00 0.00 0.00 85 1016.4
20260903081421 62 226 3.0 6.0 0.00 0.00 0.00 85 1016.4
20260903080929 62 36 3.0 6.0 0.00 0.00 0.00 85 1016.3
20260903080418 62 268 3.0 6.0 0.00 0.00 0.00 85 1016.4
20260903075924 62 268 1.0 6.0 0.00 0.00 0.00 85 1016.4
20260903075428 62 268 2.0 6.0 0.00 0.00 0.00 85 1016.4
20260903074934 62 289 3.0 5.0 0.00 0.00 0.00 85 1016.4
20260903074421 62 278 1.0 5.0 0.00 0.00 0.00 85 1016.3
20260903073926 62 273 2.0 6.0 0.00 0.00 0.00 85 1016.2
20260903073434 62 233 2.0 6.0 0.00 0.00 0.00 85 1016.2
20260903072918 62 252 3.0 5.0 0.00 0.00 0.00 85 1016.3
20260903072427 62 134 2.0 7.0 0.00 0.00 0.00 85 1016.4
20260903071931 62 294 2.0 7.0 0.00 0.00 0.00 85 1016.3
20260903071417 62 217 4.0 6.0 0.00 0.00 0.00 85 1016.2
20260903070924 62 196 2.0 5.0 0.00 0.00 0.00 85 1016.3
20260903070429 62 209 3.0 7.0 0.00 0.00 0.00 84 1016.2
20260903065928 62 211 4.0 10.0 0.00 0.00 0.00 84 1016.2
20260903065434 62 230 5.0 10.0 0.00 0.00 0.00 84 1016.2
20260903064922 62 271 5.0 9.0 0.00 0.00 0.00 84 1016.2
20260903064425 62 239 3.0 7.0 0.00 0.00 0.00 84 1016.2
20260903063931 62 249 4.0 7.0 0.00 0.00 0.00 84 1016.3
20260903063437 62 263 4.0 9.0 0.00 0.00 0.00 84 1016.3
20260903062921 62 235 4.0 10.0 0.00 0.00 0.00 84 1016.4
20260903062456 62 230 6.0 10.0 0.00 0.00 0.00 84 1016.3
20260903061922 62 249 6.0 11.0 0.00 0.00 0.00 84 1016.4
20260903061431 62 258 7.0 11.0 0.00 0.00 0.00 84 1016.4
20260903060919 62 256 5.0 14.0 0.00 0.00 0.00 84 1016.4
20260903060423 62 221 4.0 14.0 0.00 0.00 0.00 84 1016.5
20260903055929 62 197 7.0 14.0 0.00 0.00 0.00 84 1016.5
20260903055434 62 273 5.0 14.0 0.00 0.00 0.00 84 1016.4
20260903054943 62 303 6.0 15.0 0.00 0.00 0.00 84 1016.5
20260903054429 62 268 7.0 16.0 0.00 0.00 0.00 84 1016.5
20260903053936 62 247 5.0 16.0 0.00 0.00 0.00 84 1016.6
20260903053422 62 273 5.0 13.0 0.00 0.00 0.00 84 1016.7
20260903052944 62 254 5.0 15.0 0.00 0.00 0.00 83 1016.6
20260903052432 62 264 5.0 15.0 0.00 0.00 0.00 83 1016.6
20260903051918 62 263 8.0 12.0 0.00 0.00 0.00 83 1016.6
20260903051423 62 270 5.0 12.0 0.00 0.00 0.00 83 1016.7
20260903050930 62 244 5.0 13.0 0.00 0.00 0.00 83 1016.7
20260903050418 62 263 6.0 13.0 0.00 0.00 0.00 83 1016.7
20260903045923 62 217 6.0 12.0 0.00 0.00 0.00 83 1016.8
20260903045428 62 194 3.0 9.0 0.00 0.00 0.00 83 1016.8
20260903044935 62 134 3.0 8.0 0.00 0.00 0.00 83 1016.7
20260903044422 62 232 3.0 8.0 0.00 0.00 0.00 83 1016.6
20260903043929 62 252 3.0 12.0 0.00 0.00 0.00 83 1016.7
20260903043435 62 205 6.0 15.0 0.00 0.00 0.00 83 1016.6
20260903042952 62 216 7.0 15.0 0.00 0.00 0.00 83 1016.5
20260903042420 62 252 6.0 16.0 0.00 0.00 0.00 83 1016.4
20260903041923 62 259 6.0 18.0 0.00 0.00 0.00 83 1016.4
20260903041457 62 237 9.0 19.0 0.00 0.00 0.00 83 1016.3
20260903040923 62 268 10.0 19.0 0.00 0.00 0.00 83 1016.4
20260903040429 62 299 9.0 19.0 0.00 0.00 0.00 83 1016.3
20260903035934 62 287 11.0 21.0 0.00 0.00 0.00 83 1016.3
20260903035440 63 268 12.0 24.0 0.00 0.00 0.00 83 1016.2
20260903034925 63 289 13.0 24.0 0.00 0.00 0.00 83 1016.1
20260903034431 63 284 15.0 23.0 0.00 0.00 0.00 83 1016.1
20260903033918 63 264 16.0 26.0 0.00 0.00 0.00 83 1016.1
20260903033428 63 222 14.0 26.0 0.00 0.00 0.00 83 1016.0
20260903032932 63 249 13.0 22.0 0.00 0.00 0.00 83 1015.9
20260903032420 63 359 15.0 26.0 0.00 0.00 0.00 83 1015.8
20260903031927 63 270 15.0 26.0 0.00 0.00 0.00 83 1015.7
20260903031432 63 261 15.0 21.0 0.00 0.00 0.00 83 1015.7
20260903030919 63 270 13.0 22.0 0.00 0.00 0.00 83 1015.8
20260903030423 63 237 14.0 22.0 0.00 0.00 0.00 83 1015.7
20260903025929 63 287 13.0 23.0 0.00 0.00 0.00 83 1015.6
20260903025434 63 273 13.0 23.0 0.00 0.00 0.00 83 1015.6
20260903024918 63 242 11.0 20.0 0.00 0.00 0.00 83 1015.6
20260903024425 63 265 10.0 21.0 0.00 0.00 0.00 82 1015.7
20260903023930 63 282 12.0 21.0 0.00 0.00 0.00 82 1015.7
20260903023437 63 270 10.0 19.0 0.00 0.00 0.00 81 1015.8
20260903022939 63 257 11.0 22.0 0.00 0.00 0.00 81 1015.8
20260903022423 63 280 11.0 18.0 0.00 0.00 0.00 81 1016.0
20260903021929 63 276 10.0 22.0 0.00 0.00 0.00 80 1015.9
20260903021435 64 271 12.0 21.0 0.00 0.00 0.00 80 1016.0
20260903020920 64 277 13.0 21.0 0.00 0.00 0.00 80 1016.0
20260903020425 64 282 9.0 23.0 0.00 0.00 0.00 80 1016.1
20260903015929 64 254 10.0 23.0 0.00 0.00 0.00 79 1016.1
20260903015433 64 292 9.0 16.0 0.00 0.00 0.00 79 1016.2
20260903014921 64 249 10.0 18.0 0.00 0.00 0.00 79 1016.2
20260903014429 64 285 10.0 19.0 0.00 0.00 0.00 78 1016.2
20260903013917 64 257 12.0 19.0 0.00 0.00 0.00 77 1016.2
20260903013423 65 254 9.0 25.0 0.00 0.00 0.00 77 1016.4
20260903012931 65 222 10.0 25.0 0.00 0.00 0.00 76 1016.2
20260903012419 65 291 13.0 22.0 0.00 0.00 0.00 76 1016.3
20260903011927 65 228 12.0 23.0 0.00 0.00 0.00 75 1016.2
20260903011430 66 256 11.0 22.0 0.00 0.00 0.00 75 1016.3
20260903010936 66 233 13.0 19.0 0.00 0.00 0.00 75 1016.3
20260903010445 66 276 11.0 21.0 0.00 0.00 0.00 75 1016.3
20260903005939 66 282 12.0 21.0 0.00 0.00 0.00 74 1016.3
20260903005451 66 257 13.0 18.0 0.00 0.00 0.00 74 1016.3
20260903004936 66 268 9.0 21.0 0.00 0.00 0.00 74 1016.3
20260903004421 66 280 15.0 21.0 0.00 0.00 0.00 74 1016.3
20260903003927 66 281 12.0 24.0 0.00 0.00 0.00 73 1016.3
20260903003433 66 316 12.0 24.0 0.00 0.00 0.00 73 1016.4
20260903002918 66 278 13.0 23.0 0.00 0.00 0.00 74 1016.4
20260903002426 66 288 15.0 22.0 0.00 0.00 0.00 73 1016.5
20260903001929 66 249 13.0 23.0 0.00 0.00 0.00 73 1016.6
20260903001435 66 264 9.0 23.0 0.00 0.00 0.00 73 1016.6
20260903000922 66 263 13.0 22.0 0.00 0.00 0.00 73 1016.5
20260903000432 66 273 15.0 22.0 0.00 0.00 0.00 73 1016.6
20260902235936 67 280 11.0 21.0 0.00 0.00 0.00 73 1016.7
20260902235453 67 310 11.0 22.0 0.00 0.00 0.00 73 1016.7
20260902234939 67 225 12.0 22.0 0.00 0.00 0.00 72 1016.8
20260902234442 67 270 8.0 19.0 0.00 0.00 0.00 72 1016.8
20260902233926 67 275 10.0 18.0 0.00 0.00 0.00 72 1016.8
20260902233434 68 268 10.0 19.0 0.00 0.00 0.00 71 1016.7
20260902232948 67 258 10.0 19.0 0.00 0.00 0.00 71 1016.7
20260902232434 67 248 11.0 18.0 0.00 0.00 0.00 71 1016.7
20260902231941 67 310 10.0 19.0 0.00 0.00 0.00 72 1016.8
20260902231445 67 239 10.0 23.0 0.00 0.00 0.00 72 1016.9
20260902230932 68 268 13.0 23.0 0.00 0.00 0.00 71 1016.9
20260902230436 68 275 9.0 22.0 0.00 0.00 0.00 72 1016.9
20260902225928 67 280 12.0 22.0 0.00 0.00 0.00 72 1017.0
20260902225434 68 280 8.0 19.0 0.00 0.00 0.00 72 1017.1
20260902224938 68 289 8.0 19.0 0.00 0.00 0.00 72 1017.1
20260902224451 68 258 9.0 17.0 0.00 0.00 0.00 71 1017.2
20260902223939 68 273 11.0 17.0 0.00 0.00 0.00 71 1017.3
20260902223423 69 259 7.0 16.0 0.00 0.00 0.00 71 1017.2
20260902222955 69 258 7.0 16.0 0.00 0.00 0.00 71 1017.2
20260902222422 69 233 5.0 16.0 0.00 0.00 0.00 71 1017.3
20260902221927 69 256 8.0 16.0 0.00 0.00 0.00 71 1017.3
20260902221417 69 282 6.0 14.0 0.00 0.00 0.00 72 1017.2
20260902220918 68 249 6.0 16.0 0.00 0.00 0.00 72 1017.3
20260902220453 68 303 10.0 18.0 0.00 0.00 0.00 72 1017.3
20260902215925 68 256 7.0 20.0 0.00 0.00 0.00 72 1017.3
20260902215428 68 270 10.0 20.0 0.00 0.00 0.00 72 1017.3
20260902214934 68 301 11.0 18.0 0.00 0.00 0.00 71 1017.4
20260902214423 68 226 11.0 18.0 0.00 0.00 0.00 72 1017.3
20260902213958 69 302 7.0 16.0 0.00 0.00 0.00 71 1017.4
20260902213418 68 254 8.0 21.0 0.00 0.00 0.00 72 1017.5
20260902212922 68 251 10.0 21.0 0.00 0.00 0.00 72 1017.5
20260902212427 68 232 9.0 18.0 0.00 0.00 0.00 73 1017.5